Home   Weather   Krefeld   Past weeks

Flag for Germany Past Weather in Krefeld, North Rhine-Westphalia, Germany — Yesterday and Last 2 Weeks

Now
68 °F

Passing clouds.


Feels Like: 68 °F
Forecast: 55 / 64 °F
Wind: 9 mph from West

Location: Monchengladbach Airport

Current Time: Sep 29, 2016 at 10:33:07 PM

Latest Report: Sep 29, 2016 at 8:20 PM


Visibility: N/A

Pressure: 29.95 "Hg

Humidity: 60%

Dew Point: 54 °F

Location of KrefeldLocation

Past Weather in Krefeld — Graph

°F

Krefeld Temperature Yesterday

Maximum temperature yesterday: 73 °F (at 4:20 PM)
Minimum temperature yesterday: 57 °F (at 7:50 AM)
Average temperature yesterday: 67 °F

High & Low Weather Summary for the Past Weeks

 TemperatureHumidityPressure
High86 °F (Sep 15, 3:20 PM)100% (Sep 17, 7:50 AM)30.33 "Hg (Sep 17, 7:50 AM)
Low45 °F (Sep 27, 7:50 AM)32% (Sep 25, 2:50 PM)29.77 "Hg (Sep 15, 4:20 PM)
Average66 °F65%30.10 "Hg
* Reported Sep 14 8:20 PM — Sep 29 8:20 PM, Krefeld, Weather by CustomWeather, © 2016

Note: Actual official high and low records may vary slightly from our data, if they occured in-between our weather recording intervals... More about our weather records

Advertising

Krefeld Weather History for the Previous 24 Hours

Scroll right to see more
 ConditionsComfort  
Time TempWeatherWind HumidityBarometerVisibility
8:20 PM
Thu, Sep 29
68 °FPassing clouds.9 mph60%29.95 "HgN/A
7:50 PM68 °FPassing clouds.9 mph60%29.95 "HgN/A
7:20 PM68 °FPassing clouds.10 mph60%29.95 "HgN/A
6:50 PM68 °FPassing clouds.16 mph60%29.95 "HgN/A
6:20 PM70 °FPartly cloudy.10 mph57%29.92 "HgN/A
5:50 PM70 °FPassing clouds.17 mph57%29.95 "HgN/A
5:20 PM70 °FPassing clouds.14 mph57%29.95 "HgN/A
4:50 PM70 °FPassing clouds.10 mph57%29.95 "HgN/A
4:20 PM70 °FPassing clouds.9 mph57%29.95 "HgN/A
3:50 PM72 °FPassing clouds.16 mph53%29.95 "HgN/A
3:20 PM70 °FPassing clouds.18 mph57%29.98 "HgN/A
2:50 PM70 °FPassing clouds.10 mph57%29.98 "HgN/A
2:20 PM72 °FPassing clouds.12 mph53%29.98 "HgN/A
1:50 PM70 °FPassing clouds.17 mph60%30.01 "HgN/A
1:20 PM70 °FPassing clouds.17 mph60%30.01 "HgN/A
12:50 PM70 °FPassing clouds.17 mph64%30.01 "HgN/A
12:20 PM68 °FPassing clouds.10 mph69%30.04 "HgN/A
11:50 AM66 °FPassing clouds.13 mph73%30.04 "HgN/A
11:20 AM66 °FPassing clouds.13 mph73%30.04 "HgN/A
10:50 AM66 °FPassing clouds.8 mph73%30.07 "HgN/A
10:20 AM64 °FPartly sunny.9 mph78%30.07 "HgN/A
9:50 AM66 °FSunny.8 mph73%30.07 "Hg10 mi
9:20 AM64 °FSunny.6 mph78%30.07 "Hg10 mi
8:50 AM63 °FSunny.8 mph83%30.07 "Hg10 mi
8:20 AM61 °FSunny.6 mph83%30.07 "Hg10 mi
7:50 AM59 °FSunny.5 mph88%30.09 "Hg10 mi
Weather by CustomWeather, © 2016

See weather overviewHow to use our weather pages